Location: *
(58.7167°N, 26.1833°E)
Time: 16:07:57
(UTC+00:00)

Cosmos 1825 Rocket - Pass Details

Date: 25 August 2019
Orbit: 604 x 631 km, 82.5° (Epoch: 15 September)

Event Time Altitude Azimuth Distance (km) Brightness Sun altitude
Rises 21:59:43 0° 347° (NNW) 2,930 8.6 -20.6°
Reaches altitude 10° 22:02:01 10° 352° (N) 2,014 7.4 -20.6°
Maximum altitude 22:06:25 58° 72° (ENE) 733 3.9 -20.6°
Enters shadow 22:07:38 42° 127° (SE) 896 4.0 -20.6°
